Oelwein, IA

9:14 PM CDT on October 13, 2019 (GMT -0500)
Oelwein Municipal

Weather History for KOLZ - June, 2019

Change the Weather History Date:

Tuesday, June 11, 2019

  Actual Average Record
Temperature  
Mean Temperature 62 °F -  
Max Temperature 71 °F 79 °F 96 °F (2001)
Min Temperature 53 °F 57 °F 44 °F (1958)
Degree Days  
Heating Degree Days 3    
Growing Degree Days 12 (Base 50)    
Moisture  
Dew Point 51 °F    
Average Humidity 69    
Maximum Humidity 100    
Minimum Humidity 41    
Precipitation  
Precipitation 0.00 in - - ()
Sea Level Pressure  
Sea Level Pressure 30.11 in    
Wind  
Wind Speed 5 mph ()    
Max Wind Speed 17 mph    
Max Gust Speed 26 mph    
Visibility 9.3 miles    
Events      
Averages and records for this station are not official NWS values.
T = Trace of Precipitation, MM = Missing Value Source: Averaged Metar Reports

Daily Weather History Graph

Daily Weather History Graph

Search for Another Location

Airport or City:

Astronomy

Jun. 11, 2019 Rise Set
Actual Time 5:29 AM CDT 8:45 PM CDT
Civil Twilight 4:54 AM CDT 9:20 PM CDT
Nautical Twilight 4:09 AM CDT 10:05 PM CDT
Astronomical Twilight 3:14 AM CDT 11:00 PM CDT
Moon 2:36 PM CDT (6/11) 2:23 AM CDT (6/11)
Length of Visible Light 16h 25m
Length of Day
15h 16m
Waxing Gibbous, 66% of the Moon is Illuminated
Jun 11
Waxing Gibbous
Jun 17
Full
Jun 25
Last Quarter
Jul 2
New
Jul 9
First Quarter

Hourly Weather History & Observations

Time (CDT) Temp. Dew Point Humidity Pressure Visibility Wind Dir Wind Speed Gust Speed Precip Events Conditions
12:15 AM 59.0 °F 44.6 °F 59% 30.16 in 10.0 mi West 5.8 mph - N/A   Clear
12:35 AM 59.0 °F 44.6 °F 59% 30.16 in 10.0 mi Calm Calm - N/A   Clear
12:55 AM 59.0 °F 44.6 °F 59% 30.16 in 10.0 mi Calm Calm - N/A   Clear
1:15 AM 55.4 °F 46.4 °F 72% 30.16 in 10.0 mi South 3.5 mph - N/A   Clear
1:35 AM 57.2 °F 48.2 °F 72% 30.16 in 10.0 mi South 3.5 mph - N/A   Partly Cloudy
1:55 AM 53.6 °F 50.0 °F 88% 30.16 in 10.0 mi SSE 4.6 mph - N/A   Clear
2:15 AM 53.6 °F 50.0 °F 88% 30.16 in 10.0 mi South 4.6 mph - N/A   Partly Cloudy
2:35 AM 55.4 °F 48.2 °F 77% 30.16 in 10.0 mi SSE 3.5 mph - N/A   Mostly Cloudy
2:55 AM 55.4 °F 51.8 °F 88% 30.16 in 10.0 mi Calm Calm - N/A   Overcast
3:15 AM 55.4 °F 51.8 °F 88% 30.16 in 10.0 mi South 3.5 mph - N/A   Mostly Cloudy
3:35 AM 55.4 °F 51.8 °F 88% 30.15 in 10.0 mi SSW 4.6 mph - N/A   Scattered Clouds
3:55 AM 55.4 °F 50.0 °F 82% 30.16 in 10.0 mi SW 3.5 mph - N/A   Scattered Clouds
4:15 AM 57.2 °F 48.2 °F 72% 30.16 in 10.0 mi SW 5.8 mph - N/A   Clear
4:35 AM 55.4 °F 48.2 °F 77% 30.16 in 10.0 mi WSW 5.8 mph - N/A   Clear
4:55 AM 55.4 °F 48.2 °F 77% 30.16 in 10.0 mi West 4.6 mph - N/A   Clear
5:15 AM 55.4 °F 48.2 °F 77% 30.16 in 10.0 mi WSW 3.5 mph - N/A   Clear
5:35 AM 55.4 °F 50.0 °F 82% 30.16 in 10.0 mi Calm Calm - N/A   Clear
5:55 AM 55.4 °F 50.0 °F 82% 30.17 in 10.0 mi Calm Calm - N/A   Clear
6:15 AM 53.6 °F 50.0 °F 88% 30.17 in 10.0 mi Calm Calm - N/A   Clear
6:35 AM 57.2 °F 51.8 °F 82% 30.17 in 10.0 mi Calm Calm - N/A   Scattered Clouds
6:55 AM 59.0 °F 51.8 °F 77% 30.17 in 10.0 mi Calm Calm - N/A   Partly Cloudy
7:15 AM 60.8 °F 51.8 °F 72% 30.17 in 10.0 mi Calm Calm - N/A   Clear
7:35 AM 62.6 °F 53.6 °F 72% 30.16 in 10.0 mi Calm Calm - N/A   Clear
7:55 AM 62.6 °F 51.8 °F 68% 30.16 in 10.0 mi WSW 3.5 mph - N/A   Clear
8:15 AM 64.4 °F 50.0 °F 59% 30.17 in 10.0 mi WSW 6.9 mph - N/A   Clear
8:35 AM 66.2 °F 50.0 °F 56% 30.16 in 10.0 mi WSW 5.8 mph - N/A   Clear
8:55 AM 68.0 °F 48.2 °F 49% 30.16 in 10.0 mi SW 5.8 mph - N/A   Clear
9:15 AM 69.8 °F 46.4 °F 43% 30.16 in 10.0 mi SSW 8.1 mph - N/A   Clear
9:35 AM 69.8 °F 46.4 °F 43% 30.15 in 10.0 mi SW 9.2 mph - N/A   Clear
9:55 AM 69.8 °F 46.4 °F 43% 30.15 in 10.0 mi SSW 10.4 mph - N/A   Clear
10:15 AM 69.8 °F 46.4 °F 43% 30.16 in 10.0 mi West 11.5 mph - N/A   Partly Cloudy
10:35 AM 68.0 °F 46.4 °F 46% 30.16 in 10.0 mi WNW 15.0 mph 20.7 mph N/A   Scattered Clouds
10:55 AM 66.2 °F 48.2 °F 52% 30.17 in 10.0 mi WNW 12.7 mph - N/A   Mostly Cloudy
11:15 AM 66.2 °F 48.2 °F 52% 30.19 in 10.0 mi WSW 13.8 mph 20.7 mph N/A   Scattered Clouds
11:35 AM 66.2 °F 50.0 °F 56% 30.19 in 10.0 mi West 13.8 mph - N/A   Partly Cloudy
11:55 AM 66.2 °F 48.2 °F 52% 30.18 in 10.0 mi NW 17.3 mph - N/A   Clear
12:15 PM 66.2 °F 50.0 °F 56% 30.18 in 10.0 mi NNW 15.0 mph 25.3 mph N/A   Clear
12:35 PM 66.2 °F 50.0 °F 56% 30.15 in 10.0 mi North 15.0 mph - N/A   Partly Cloudy
12:55 PM 66.2 °F 51.8 °F 60% 30.14 in 10.0 mi North 12.7 mph 19.6 mph N/A   Scattered Clouds
1:15 PM 66.2 °F 51.8 °F 60% 30.12 in 10.0 mi NNE 16.1 mph - N/A   Scattered Clouds
1:35 PM 68.0 °F 50.0 °F 52% 30.11 in 10.0 mi NE 13.8 mph - N/A   Scattered Clouds
1:55 PM 68.0 °F 50.0 °F 52% 30.10 in 10.0 mi NE 13.8 mph - N/A   Overcast
2:15 PM 68.0 °F 50.0 °F 52% 30.10 in 10.0 mi NE 9.2 mph - N/A   Overcast
2:35 PM 69.8 °F 50.0 °F 49% 30.10 in 10.0 mi NNE 9.2 mph - N/A   Mostly Cloudy
2:55 PM 69.8 °F 50.0 °F 49% 30.09 in 10.0 mi ENE 8.1 mph - N/A   Scattered Clouds
3:15 PM 71.6 °F 50.0 °F 46% 30.08 in 10.0 mi ENE 9.2 mph - N/A   Partly Cloudy
3:35 PM 71.6 °F 50.0 °F 46% 30.08 in 10.0 mi ENE 5.8 mph - N/A   Scattered Clouds
3:55 PM 71.6 °F 48.2 °F 43% 30.07 in 10.0 mi ESE 5.8 mph - N/A   Partly Cloudy
4:15 PM 71.6 °F 48.2 °F 43% 30.06 in 10.0 mi ESE 5.8 mph - N/A   Partly Cloudy
4:35 PM 71.6 °F 48.2 °F 43% 30.06 in 10.0 mi Calm Calm - N/A   Scattered Clouds
4:55 PM 71.6 °F 46.4 °F 41% 30.05 in 10.0 mi ESE 4.6 mph - N/A   Partly Cloudy
5:15 PM 71.6 °F 48.2 °F 43% 30.05 in 10.0 mi East 4.6 mph - N/A   Clear
5:35 PM 71.6 °F 48.2 °F 43% 30.04 in 10.0 mi East 6.9 mph - N/A   Clear
5:55 PM 69.8 °F 53.6 °F 56% 30.03 in 10.0 mi ENE 8.1 mph - N/A   Scattered Clouds
6:15 PM 68.0 °F 53.6 °F 60% 30.03 in 10.0 mi NE 5.8 mph - N/A   Overcast
6:35 PM 68.0 °F 55.4 °F 64% 30.03 in 9.0 mi NNE 4.6 mph - N/A   Mostly Cloudy
6:55 PM 66.2 °F 53.6 °F 64% 30.03 in 5.0 mi Variable 4.6 mph 11.5 mph N/A   Haze
7:15 PM 64.4 °F 59.0 °F 83% 30.03 in 10.0 mi WNW 8.1 mph - N/A   Scattered Clouds
7:35 PM 60.8 °F 59.0 °F 94% 30.06 in 4.0 mi WNW 16.1 mph 26.5 mph N/A   Mostly Cloudy
7:55 PM 59.0 °F 59.0 °F 100% 30.06 in 7.0 mi NW 13.8 mph 20.7 mph N/A   Mostly Cloudy
8:15 PM 59.0 °F 57.2 °F 94% 30.06 in 8.0 mi NW 12.7 mph - N/A   Mostly Cloudy
8:35 PM 59.0 °F 57.2 °F 94% 30.06 in 5.0 mi NNW 10.4 mph - N/A   Mostly Cloudy
8:55 PM 57.2 °F 57.2 °F 100% 30.05 in 5.0 mi North 9.2 mph - N/A   Mostly Cloudy
9:15 PM 57.2 °F 57.2 °F 100% 30.04 in 7.0 mi NNE 10.4 mph - N/A   Overcast
9:35 PM 57.2 °F 57.2 °F 100% 30.05 in 7.0 mi NNE 6.9 mph - N/A   Overcast
9:55 PM 57.2 °F 57.2 °F 100% 30.05 in 6.0 mi NE 5.8 mph - N/A   Mostly Cloudy
10:15 PM 57.2 °F 57.2 °F 100% 30.04 in 8.0 mi ENE 6.9 mph - N/A   Mostly Cloudy
10:35 PM 57.2 °F 57.2 °F 100% 30.04 in 10.0 mi East 8.1 mph - N/A   Mostly Cloudy
10:55 PM 57.2 °F 57.2 °F 100% 30.04 in 6.0 mi East 6.9 mph - N/A   Mostly Cloudy
11:15 PM 57.2 °F 57.2 °F 100% 30.02 in 9.0 mi East 8.1 mph - N/A   Mostly Cloudy
11:35 PM 57.2 °F 57.2 °F 100% 30.00 in 7.0 mi NE 10.4 mph - N/A   Overcast
11:55 PM 57.2 °F 57.2 °F 100% 29.99 in 10.0 mi ENE 8.1 mph - N/A   Overcast